Home > Weather > Plettenberg > Past weeks

Flag for Germany Weather for the Past 2 Weeks in Plettenberg, North Rhine-Westphalia, Germany

Now
45 °F

Passing clouds.


Feels Like: 42 °F
Forecast: 39 / 54 °F
Wind: 5 mph from North

Location: Dortmund / Wickede

Current Time: Apr 30, 2016 at 11:45:48 PM

Latest Report: Apr 30, 2016 at 9:50 PM


Visibility: N/A

Pressure: 30.15 "Hg

Humidity: 76%

Dew Point: 37 °F

Location of PlettenbergLocation

Historic Weather in Plettenberg — Graph

°F

Plettenberg Temperature Yesterday

Maximum temperature yesterday: 52 °F (at 12:50 PM)
Minimum temperature yesterday: 37 °F (at 5:20 AM)
Average temperature yesterday: 47 °F

High & Low Weather Summary for the Past Weeks

 TemperatureHumidityPressure
High63 °F (Apr 21, 4:50 PM)93% (Apr 20, 7:20 AM)30.48 "Hg (Apr 20, 7:20 AM)
Low32 °F (Apr 20, 5:50 AM)33% (Apr 20, 6:50 PM)29.45 "Hg (Apr 26, 1:50 PM)
Average45 °F65%29.95 "Hg
* Reported Apr 15 9:20 PM — Apr 30 9:50 PM, Plettenberg, Weather by CustomWeather, © 2016

Note: Actual official high and low records may vary slightly from our data, if they occured in-between our weather recording intervals... More about our weather records

Advertising

Plettenberg Weather History for the Previous 24 Hours

Scroll right to see more
 ConditionsComfort  
Time TempWeatherWind HumidityBarometerVisibility
9:50 PM
Sat, Apr 30
45 °FPassing clouds.5 mph76%30.15 "HgN/A
9:20 PM45 °FPassing clouds.5 mph76%30.15 "HgN/A
8:50 PM45 °FSunny.3 mph76%30.12 "Hg10 mi
8:20 PM46 °FPassing clouds.5 mph71%30.12 "HgN/A
7:50 PM46 °FSunny.6 mph71%30.12 "Hg10 mi
7:20 PM46 °FPassing clouds.6 mph71%30.12 "HgN/A
6:50 PM46 °FScattered clouds.7 mph71%30.12 "HgN/A
6:20 PM48 °FScattered clouds.7 mph66%30.12 "HgN/A
5:50 PM48 °FPassing clouds.5 mph66%30.12 "HgN/A
5:20 PM48 °FPassing clouds.6 mph66%30.09 "HgN/A
4:50 PM48 °FPassing clouds.5 mph66%30.09 "HgN/A
4:20 PM46 °FScattered clouds.5 mph66%30.09 "HgN/A
3:50 PM46 °FScattered clouds.6 mph71%30.09 "HgN/A
3:20 PM46 °FScattered clouds.3 mph71%30.09 "HgN/A
2:50 PM46 °FScattered clouds.6 mph71%30.09 "HgN/A
2:20 PM45 °FDrizzle. Broken clouds.3 mph76%30.09 "Hg6 mi
1:50 PM45 °FDrizzle. Broken clouds.3 mph76%30.09 "Hg6 mi
1:20 PM45 °FDrizzle. Partly sunny.2 mph76%30.09 "HgN/A
12:50 PM45 °FDrizzle. Broken clouds.3 mph71%30.09 "HgN/A
12:20 PM43 °FDrizzle. Broken clouds.3 mph76%30.09 "Hg6 mi
11:50 AM43 °FDrizzle. Partly sunny.3 mph76%30.09 "Hg6 mi
11:20 AM41 °FDrizzle. Partly sunny.2 mph81%30.07 "Hg6 mi
10:50 AM41 °FPartly sunny.2 mph76%30.07 "Hg6 mi
10:20 AM41 °FPartly sunny.1 mph81%30.07 "Hg6 mi
9:50 AM41 °FPartly sunny.2 mph81%30.07 "Hg6 mi
8:50 AM39 °FLight rain. Partly sunny.3 mph87%30.07 "Hg4 mi
8:20 AM39 °FLight rain. Partly sunny.6 mph87%30.04 "Hg4 mi
7:50 AM41 °FLight rain. Low clouds.3 mph87%30.04 "Hg4 mi
7:20 AM41 °FDrizzle. Low clouds.5 mph87%30.04 "Hg4 mi
6:50 AM41 °FPassing clouds.2 mph87%30.04 "Hg4 mi
6:20 AM41 °FPassing clouds.5 mph87%30.01 "Hg6 mi
5:50 AM41 °FLight rain. Passing clouds.3 mph87%30.01 "HgN/A
5:20 AM43 °FPassing clouds.5 mph81%30.01 "HgN/A
Weather by CustomWeather, © 2016

See weather overviewHow to use our weather pages